Location: Bratislava
(48.1500°N, 17.1170°E)
Time: 13:38:16
(UTC+02:00)

Tiangong - Visible Passes

Search period start: 08 May 2026 00:00
Search period end: 18 May 2026 00:00
Orbit: 374 x 381 km, 41.5° (Epoch: 8 May)

Date Brightness Start Highest point End Pass type
(mag) Time Alt. Az. Time Alt. Az. Time Alt. Az.
8 May 0.4 03:23:04 12° SE 03:23:04 12° SE 03:23:44 10° SE visible
9 May -0.5 03:55:54 18° S 03:56:44 20° SSE 03:59:06 10° ESE visible
10 May 0.5 02:56:40 11° SE 02:56:40 11° SE 02:56:57 10° ESE visible
10 May -0.8 04:28:43 11° SW 04:31:05 24° S 04:33:40 10° ESE visible
11 May -0.7 03:29:28 22° SSE 03:29:28 22° SSE 03:31:46 10° ESE visible
12 May -0.8 04:02:18 18° SW 04:03:33 23° S 04:06:06 10° SE visible
13 May -0.1 03:03:08 17° SE 03:03:08 17° SE 03:04:13 10° ESE visible
13 May -0.4 04:35:36 10° WSW 04:37:46 17° SSW 04:39:54 10° SSE visible
14 May -0.7 03:36:09 21° S 03:36:09 21° S 03:38:16 10° SE visible
15 May -0.2 04:09:23 13° SSW 04:09:55 14° SSW 04:11:35 10° SSE visible
